Brunswick, GA

8:16 PM EDT on October 19, 2017 (GMT -0400)
Glynco Jetport

Weather History for KBQK - April, 2012

Change the Weather History Date:

Thursday, April 26, 2012

  Actual Average Record
Temperature  
Mean Temperature 72 °F -  
Max Temperature 87 °F 80 °F 94 °F (1958)
Min Temperature 57 °F 57 °F 46 °F (1998)
Cooling Degree Days 7    
Growing Degree Days 22 (Base 50)    
Moisture  
Dew Point 54 °F    
Average Humidity 55    
Maximum Humidity 94    
Minimum Humidity 29    
Precipitation  
Precipitation 0.00 in - - ()
Sea Level Pressure  
Sea Level Pressure 30.04 in    
Wind  
Wind Speed 11 mph (WSW)    
Max Wind Speed 18 mph    
Max Gust Speed 24 mph    
Visibility 10 miles    
Events      
Averages and records for this station are not official NWS values.
T = Trace of Precipitation, MM = Missing Value Source: NWS Daily Summary

Daily Weather History Graph

Daily Weather History Graph

Search for Another Location

Airport or City:

Trip Planner

Search our weather history database for the weather conditions in past years. The results will help you decide how hot, cold, wet, or windy it might be!

Date:

Astronomy

Apr. 26, 2012 Rise Set
Actual Time 6:45 AM EDT 8:02 PM EDT
Civil Twilight 6:20 AM EDT 8:27 PM EDT
Nautical Twilight 5:49 AM EDT 8:58 PM EDT
Astronomical Twilight 5:18 AM EDT 9:29 PM EDT
Moon 10:31 AM EDT (4/26) No Moon Set
Length of Visible Light 14h 07m
Length of Day
13h 16m
Waxing Crescent, 24% of the Moon is Illuminated
Apr 26
Waxing Crescent
Apr 29
First Quarter
May 5
Full
May 12
Last Quarter
May 20
New

Hourly Weather History & Observations

Time (EDT) Temp. Heat Index Dew Point Humidity Pressure Visibility Wind Dir Wind Speed Gust Speed Precip Events Conditions
12:15 AM 68.0 °F - 50.0 °F 52% 30.05 in 10.0 mi WSW 11.5 mph - N/A   Clear
12:35 AM 68.0 °F - 50.0 °F 52% 30.05 in 10.0 mi SW 10.4 mph - N/A   Clear
12:55 AM 66.2 °F - 51.8 °F 60% 30.05 in 10.0 mi SW 11.5 mph - N/A   Clear
1:15 AM 66.2 °F - 51.8 °F 60% 30.06 in 10.0 mi SW 12.7 mph 18.4 mph N/A   Clear
1:35 AM 64.4 °F - 53.6 °F 68% 30.06 in 10.0 mi SW 12.7 mph - N/A   Clear
1:55 AM 64.4 °F - 53.6 °F 68% 30.05 in 10.0 mi WSW 11.5 mph - N/A   Clear
2:15 AM 64.4 °F - 53.6 °F 68% 30.05 in 10.0 mi WSW 11.5 mph - N/A   Clear
2:35 AM 62.6 °F - 53.6 °F 72% 30.05 in 10.0 mi WSW 11.5 mph - N/A   Clear
2:55 AM 62.6 °F - 53.6 °F 72% 30.04 in 10.0 mi SW 12.7 mph - N/A   Clear
3:15 AM 62.6 °F - 55.4 °F 77% 30.03 in 10.0 mi WSW 9.2 mph - N/A   Clear
3:35 AM 62.6 °F - 55.4 °F 77% 30.03 in 10.0 mi WSW 10.4 mph - N/A   Clear
3:55 AM 62.6 °F - 55.4 °F 77% 30.04 in 10.0 mi WSW 9.2 mph - N/A   Clear
4:15 AM 60.8 °F - 55.4 °F 82% 30.05 in 10.0 mi WSW 6.9 mph - N/A   Clear
4:35 AM 60.8 °F - 55.4 °F 82% 30.06 in 10.0 mi WSW 6.9 mph - N/A   Clear
4:55 AM 59.0 °F - 55.4 °F 88% 30.06 in 10.0 mi WSW 5.8 mph - N/A   Clear
5:15 AM 59.0 °F - 55.4 °F 88% 30.06 in 10.0 mi WSW 5.8 mph - N/A   Clear
5:35 AM 59.0 °F - 55.4 °F 88% 30.06 in 10.0 mi WSW 5.8 mph - N/A   Clear
5:55 AM 59.0 °F - 53.6 °F 82% 30.06 in 10.0 mi WSW 5.8 mph - N/A   Clear
6:15 AM 57.2 °F - 53.6 °F 88% 30.07 in 10.0 mi SW 5.8 mph - N/A   Clear
6:35 AM 57.2 °F - 53.6 °F 88% 30.07 in 10.0 mi SW 4.6 mph - N/A   Clear
6:55 AM 57.2 °F - 55.4 °F 94% 30.08 in 10.0 mi WSW 5.8 mph - N/A   Clear
7:15 AM 59.0 °F - 55.4 °F 88% 30.08 in 10.0 mi SW 6.9 mph - N/A   Clear
7:35 AM 60.8 °F - 55.4 °F 82% 30.09 in 10.0 mi SW 9.2 mph - N/A   Clear
7:55 AM 60.8 °F - 57.2 °F 88% 30.09 in 10.0 mi SW 10.4 mph - N/A   Clear
8:15 AM 62.6 °F - 59.0 °F 88% 30.09 in 10.0 mi SW 13.8 mph - N/A   Clear
8:35 AM 64.4 °F - 59.0 °F 83% 30.09 in 10.0 mi WSW 11.5 mph 16.1 mph N/A   Clear
8:55 AM 68.0 °F - 59.0 °F 73% 30.09 in 10.0 mi WSW 15.0 mph 20.7 mph N/A   Clear
9:15 AM 68.0 °F - 59.0 °F 73% 30.09 in 10.0 mi WSW 11.5 mph 18.4 mph N/A   Clear
9:35 AM 69.8 °F - 60.8 °F 73% 30.09 in 10.0 mi WSW 13.8 mph 17.3 mph N/A   Clear
9:55 AM 71.6 °F - 60.8 °F 69% 30.08 in 10.0 mi WSW 16.1 mph 23.0 mph N/A   Clear
10:15 AM 71.6 °F - 60.8 °F 69% 30.08 in 10.0 mi WSW 15.0 mph 19.6 mph N/A   Clear
10:35 AM 73.4 °F - 59.0 °F 61% 30.08 in 10.0 mi WSW 12.7 mph 20.7 mph N/A   Clear
10:55 AM 77.0 °F - 59.0 °F 54% 30.08 in 10.0 mi WSW 17.3 mph - N/A   Clear
11:15 AM 77.0 °F - 59.0 °F 54% 30.08 in 10.0 mi WSW 15.0 mph - N/A   Clear
11:35 AM 78.8 °F - 59.0 °F 51% 30.08 in 10.0 mi WSW 13.8 mph - N/A   Clear
11:55 AM 78.8 °F - 55.4 °F 44% 30.08 in 10.0 mi WSW 13.8 mph - N/A   Clear
12:15 PM 80.6 °F 80.5 °F 55.4 °F 42% 30.08 in 10.0 mi WSW 11.5 mph 21.9 mph N/A   Clear
12:35 PM 80.6 °F 80.5 °F 55.4 °F 42% 30.07 in 10.0 mi WSW 13.8 mph 20.7 mph N/A   Clear
12:55 PM 82.4 °F 81.4 °F 53.6 °F 37% 30.06 in 10.0 mi SW 18.4 mph 21.9 mph N/A   Clear
1:15 PM 82.4 °F 81.4 °F 53.6 °F 37% 30.06 in 10.0 mi SW 17.3 mph 21.9 mph N/A   Clear
1:35 PM 82.4 °F 81.4 °F 53.6 °F 37% 30.05 in 10.0 mi SW 17.3 mph 23.0 mph N/A   Clear
1:55 PM 86.0 °F - 51.8 °F 31% 30.05 in 10.0 mi SW 18.4 mph - N/A   Clear
2:15 PM 86.0 °F - 51.8 °F 31% 30.05 in 10.0 mi WSW 12.7 mph 20.7 mph N/A   Clear
2:35 PM 86.0 °F 84.2 °F 53.6 °F 33% 30.04 in 10.0 mi West 10.4 mph 20.7 mph N/A   Clear
2:55 PM 87.8 °F - 51.8 °F 29% 30.03 in 10.0 mi West 11.5 mph 19.6 mph N/A   Clear
3:15 PM 87.8 °F - 51.8 °F 29% 30.02 in 10.0 mi WSW 15.0 mph 20.7 mph N/A   Clear
3:35 PM 87.8 °F - 51.8 °F 29% 30.01 in 10.0 mi West 9.2 mph - N/A   Clear
3:55 PM 87.8 °F - 51.8 °F 29% 30.01 in 10.0 mi WSW 15.0 mph 24.2 mph N/A   Clear
4:15 PM 87.8 °F - 51.8 °F 29% 30.00 in 10.0 mi WSW 15.0 mph 19.6 mph N/A   Clear
4:35 PM 87.8 °F - 51.8 °F 29% 29.99 in 10.0 mi WSW 10.4 mph 21.9 mph N/A   Clear
4:55 PM 87.8 °F 85.7 °F 53.6 °F 31% 29.99 in 10.0 mi WSW 15.0 mph 18.4 mph N/A   Clear
5:15 PM 87.8 °F - 51.8 °F 29% 29.98 in 10.0 mi WSW 16.1 mph - N/A   Clear
5:35 PM 87.8 °F 85.7 °F 53.6 °F 31% 29.98 in 10.0 mi SW 11.5 mph 23.0 mph N/A   Clear
5:55 PM 87.8 °F 85.7 °F 53.6 °F 31% 29.97 in 10.0 mi SW 11.5 mph 18.4 mph N/A   Clear
6:15 PM 87.8 °F 85.7 °F 53.6 °F 31% 29.97 in 10.0 mi WSW 13.8 mph 21.9 mph N/A   Clear
6:35 PM 87.8 °F - 51.8 °F 29% 29.97 in 10.0 mi SW 16.1 mph 20.7 mph N/A   Scattered Clouds
6:55 PM 86.0 °F - 51.8 °F 31% 29.96 in 10.0 mi WSW 17.3 mph - N/A   Clear
7:15 PM 86.0 °F - 51.8 °F 31% 29.96 in 10.0 mi SW 10.4 mph 16.1 mph N/A   Clear
7:35 PM 84.2 °F - 51.8 °F 33% 29.96 in 10.0 mi SW 11.5 mph - N/A   Clear
7:55 PM 82.4 °F - 51.8 °F 35% 29.96 in 10.0 mi SSW 8.1 mph - N/A   Clear
8:15 PM 82.4 °F - 51.8 °F 35% 29.96 in 10.0 mi SSW 10.4 mph - N/A   Clear
8:35 PM 80.6 °F - 51.8 °F 37% 29.97 in 10.0 mi SSW 9.2 mph - N/A   Clear
8:55 PM 78.8 °F - 51.8 °F 39% 29.98 in 10.0 mi SW 8.1 mph - N/A   Clear
9:15 PM 78.8 °F - 50.0 °F 36% 30.00 in 10.0 mi SW 10.4 mph - N/A   Clear
9:35 PM 77.0 °F - 50.0 °F 39% 30.02 in 10.0 mi WSW 9.2 mph - N/A   Clear
9:55 PM 77.0 °F - 51.8 °F 41% 30.03 in 10.0 mi WSW 10.4 mph - N/A   Clear
10:15 PM 75.2 °F - 51.8 °F 44% 30.03 in 10.0 mi SW 9.2 mph - N/A   Clear
10:35 PM 75.2 °F - 53.6 °F 47% 30.03 in 10.0 mi SW 9.2 mph - N/A   Clear
10:55 PM 73.4 °F - 53.6 °F 50% 30.03 in 10.0 mi SW 11.5 mph - N/A   Clear
11:15 PM 73.4 °F - 53.6 °F 50% 30.03 in 10.0 mi SW 13.8 mph 19.6 mph N/A   Clear
11:35 PM 73.4 °F - 55.4 °F 53% 30.04 in 10.0 mi SW 10.4 mph - N/A   Clear
11:55 PM 71.6 °F - 55.4 °F 57% 30.04 in 10.0 mi WSW 8.1 mph - N/A   Clear